GFSCGP_sfc_thetae_024.txt.gz
Theta_e
299 294 291 294 297 297 296 294 292 296 298 295 294 294 297 299 298 297 299 300 300 300 302 302 302 301 299 297 295 294 292 292 293 291 290 289 289 289 289 289 289 289 288 288
295 292 297 299 298 295 294 292 292 295 297 294 293 293 296 297 298 299 299 299 300 298 299 299 300 299 298 296 295 293 293 292 292 292 291 290 289 289 289 289 288 288 287 287
292 295 300 297 295 293 293 291 292 291 294 291 289 288 291 295 298 299 300 300 300 297 298 298 298 298 297 295 294 293 293 292 292 292 291 289 289 287 286 287 286 287 287 286
294 298 297 294 293 294 289 295 293 292 288 285 291 281 289 292 293 294 297 297 296 296 298 298 297 296 296 295 295 293 293 292 292 292 291 288 287 284 285 287 286 286 286 285
292 292 292 292 293 295 292 293 290 290 288 286 287 283 288 293 291 293 295 297 298 297 298 297 296 297 296 295 293 293 292 292 292 292 291 288 286 285 286 286 286 285 284 284
293 295 293 293 293 293 292 290 289 287 285 279 286 285 284 288 292 292 294 295 297 297 296 296 296 296 295 294 292 292 291 291 291 291 290 288 286 286 284 283 283 283 283 283
290 292 293 293 289 290 290 287 280 278 277 279 288 285 289 291 292 293 294 295 295 296 295 294 294 293 293 293 292 291 291 290 291 290 290 288 287 286 285 284 283 282 282 281
286 286 292 292 292 290 287 289 281 275 277 283 284 281 287 294 296 294 295 297 295 295 295 294 294 293 292 292 292 291 291 290 290 290 289 288 287 287 286 285 284 282 281 281
286 287 290 291 292 293 288 283 290 282 277 277 285 287 291 292 293 293 294 293 292 293 294 294 293 292 292 292 291 291 290 290 290 289 289 288 287 286 285 283 282 281 280 280
291 286 289 286 289 288 288 290 282 283 272 272 282 281 285 288 292 291 290 291 291 293 293 293 293 293 293 292 292 291 290 289 289 288 288 288 286 285 283 282 281 279 279 278
293 289 286 286 284 285 283 283 285 286 284 278 278 282 288 290 291 291 291 293 292 293 293 293 293 293 293 292 291 290 289 288 288 287 287 286 285 283 281 281 280 279 278 278
293 290 284 288 290 289 289 288 287 282 281 281 283 284 293 291 292 292 291 293 293 294 295 293 293 292 291 291 290 289 289 288 288 287 286 285 282 281 280 279 278 278 277 277
292 286 280 283 288 285 284 287 288 288 286 283 281 284 294 296 292 291 291 291 292 293 292 293 293 291 291 290 290 289 288 288 287 286 284 283 281 281 279 277 277 277 276 275
295 287 284 280 284 288 284 286 287 287 283 283 283 286 291 293 294 295 296 293 293 292 293 292 292 291 292 290 290 289 288 288 286 286 284 282 281 279 277 277 276 275 275 274
289 283 285 287 288 288 287 286 287 285 285 282 284 285 289 292 293 295 296 296 294 293 294 293 291 292 291 290 288 288 288 286 285 284 283 281 279 277 276 275 275 274 274 274
290 282 284 282 286 286 284 286 287 287 287 287 287 286 293 294 295 294 295 295 295 295 295 293 292 289 288 288 289 285 285 284 284 283 281 279 276 276 275 275 274 274 274 274
286 284 282 279 284 284 280 284 285 287 289 288 284 289 294 293 294 295 296 296 296 296 296 292 290 290 288 287 287 284 283 281 282 280 278 276 276 274 274 274 274 273 273 273
287 285 285 282 284 274 284 291 290 288 289 291 291 292 294 294 296 297 298 297 297 295 294 291 289 290 290 287 283 282 281 281 280 278 277 275 274 273 273 273 272 272 272 272
293 289 283 279 279 284 285 288 287 286 286 292 291 293 294 295 295 295 298 299 298 298 297 291 290 290 289 283 281 281 279 278 277 276 275 274 274 273 272 271 270 271 271 271
290 290 285 283 278 276 285 291 293 292 282 293 293 293 293 293 287 291 297 294 293 293 291 289 286 284 282 279 280 278 276 276 275 275 274 274 274 273 271 271 270 271 271 270
283 284 281 281 280 283 289 291 290 279 284 293 294 294 293 289 292 294 291 290 290 290 287 283 282 281 280 278 278 276 275 275 276 275 273 272 272 271 271 270 270 269 269 269
283 281 280 281 279 277 289 288 284 285 289 290 289 289 288 289 290 289 289 289 288 287 282 280 278 277 276 277 277 275 274 275 274 272 271 269 269 269 269 267 267 267 267 266
278 278 274 277 279 285 286 285 288 290 290 289 287 287 289 289 290 289 289 289 289 287 282 279 277 275 273 275 275 274 274 273 271 270 268 267 267 267 267 266 265 265 266 266
277 281 276 276 282 282 284 287 289 290 289 288 289 290 290 290 290 289 289 287 285 280 279 277 276 275 273 274 275 275 272 270 269 267 266 266 266 265 265 266 266 266 265 266
276 277 276 274 278 280 282 284 284 284 285 284 284 285 286 286 286 287 287 288 285 285 280 278 277 277 275 273 273 271 270 269 267 266 265 265 265 265 265 266 266 267 268 268
276 274 272 272 278 278 279 281 282 280 279 278 278 280 282 284 284 285 285 287 287 286 278 276 276 276 274 272 272 268 269 268 267 265 265 265 265 265 266 265 266 271 270 271

GFSCGP_sfc_thetae_030.txt.gz
Theta_e
293 288 286 291 291 292 286 286 285 289 292 290 290 292 295 298 295 293 296 297 296 295 301 301 298 299 298 298 296 295 293 293 293 292 290 290 291 289 287 288 289 287 287 287
289 286 292 292 291 290 289 288 287 291 293 290 291 291 294 296 298 298 296 297 298 300 301 300 295 296 297 297 295 294 293 292 293 294 293 292 292 287 290 289 288 288 287 286
289 290 294 292 289 289 288 287 288 288 290 288 287 287 288 292 296 298 299 299 299 300 299 301 294 294 297 297 294 293 293 292 294 293 292 287 287 286 285 286 286 287 287 286
289 294 292 290 289 290 287 291 291 289 284 283 287 282 285 289 291 293 296 297 297 298 299 301 294 293 295 297 295 294 293 293 293 292 291 290 289 288 289 289 286 284 286 285
288 289 288 288 290 291 290 290 288 285 283 281 283 281 285 290 289 292 296 296 297 299 299 298 293 295 296 296 294 293 293 292 293 291 291 290 289 289 285 285 284 285 284 284
290 290 290 290 290 290 289 287 286 283 282 279 283 283 283 284 289 290 294 297 297 298 300 294 294 294 293 293 292 292 291 291 291 290 290 290 289 285 284 284 285 284 284 283
284 287 290 292 288 288 288 284 278 275 275 278 284 281 287 288 290 292 294 295 297 298 298 291 291 292 291 290 290 291 290 289 290 289 290 290 289 287 286 285 286 284 284 283
281 283 287 289 290 287 286 286 279 271 276 281 280 278 287 291 294 294 294 296 296 296 291 293 293 292 292 292 291 291 290 290 289 289 290 290 289 288 288 286 287 286 285 285
282 284 287 289 289 291 284 282 289 279 269 273 283 284 290 289 290 291 292 293 291 290 292 292 291 292 292 292 291 291 289 290 289 289 290 289 289 288 287 286 286 286 285 284
288 283 287 285 286 287 287 288 280 279 271 270 278 279 285 288 290 290 289 289 292 292 291 291 291 291 290 291 291 290 290 290 289 289 289 289 288 288 287 285 284 284 283 282
289 287 287 284 284 285 283 282 283 284 282 279 278 282 293 292 288 289 291 290 290 289 290 291 292 292 291 289 289 290 289 289 289 288 289 289 287 287 287 284 284 283 282 281
292 288 284 286 292 288 286 286 286 282 280 282 283 283 295 295 295 289 289 289 289 290 290 291 292 292 290 290 289 290 290 289 289 289 288 288 286 285 285 283 283 282 281 281
292 286 282 283 286 289 285 288 287 288 286 282 279 282 295 295 294 292 289 294 295 294 291 292 293 292 292 291 291 291 290 290 290 287 286 285 284 284 284 284 283 281 281 280
296 289 285 282 285 286 283 283 285 285 281 282 282 284 289 292 292 294 295 296 297 295 295 295 292 292 292 291 292 290 290 290 288 286 285 285 285 284 284 283 281 281 280 279
292 285 288 287 288 289 289 288 288 286 287 283 284 285 288 291 293 295 296 296 295 294 294 294 292 294 292 291 291 290 290 289 287 286 285 285 285 284 283 281 280 280 279 278
289 284 286 284 287 286 284 287 287 287 287 287 288 287 294 295 296 296 296 297 296 297 298 297 294 292 290 292 292 288 288 288 286 286 285 285 283 282 281 280 279 278 278 277
284 283 283 280 284 284 281 285 286 287 288 288 284 289 294 293 293 294 295 295 294 291 292 293 292 292 293 295 294 292 289 288 285 286 285 283 282 280 279 279 278 277 277 276
282 281 281 278 281 273 284 290 290 287 289 290 289 288 288 288 289 292 291 289 289 289 289 289 289 291 293 292 288 287 282 283 284 284 284 282 281 279 278 277 277 277 276 274
285 283 279 276 276 280 284 283 282 282 282 282 282 284 285 285 287 288 290 289 287 287 289 289 287 287 287 287 286 284 279 280 280 281 282 280 279 277 276 276 275 275 274 274
284 286 280 278 274 272 273 280 280 282 278 279 283 279 280 281 275 281 285 286 286 287 288 287 287 286 286 284 280 280 278 277 277 278 278 277 278 276 276 275 274 274 275 274
266 267 269 271 271 276 276 280 281 275 272 280 282 281 280 277 280 283 284 285 286 286 286 288 287 285 283 280 278 278 277 276 276 276 275 275 276 276 276 275 275 274 273 273
269 268 268 265 261 265 277 277 270 275 279 283 280 279 279 279 280 280 281 281 281 283 284 286 286 285 285 280 277 278 276 275 274 273 273 274 274 274 273 273 272 272 272 271
266 272 269 269 268 276 279 280 280 282 278 278 279 279 279 277 276 278 279 280 281 281 283 284 284 284 285 282 278 279 278 274 273 274 273 273 273 273 272 271 271 270 271 270
271 274 268 268 273 275 277 278 281 280 278 278 277 275 275 274 276 276 276 276 276 277 278 280 281 282 283 286 281 280 278 276 275 274 273 273 272 272 272 272 272 271 271 270
271 273 270 270 274 275 276 278 277 276 277 274 274 274 274 274 273 273 273 273 274 275 276 278 278 278 280 282 283 282 278 277 275 275 273 272 272 272 271 271 271 272 272 272
275 273 270 269 275 275 275 278 275 272 271 271 271 271 272 272 271 271 271 272 272 271 273 271 271 272 273 276 280 284 278 276 275 273 271 271 270 270 270 270 270 275 274 276

GFSCGP_sfc_thetae_033.txt.gz
Theta_e
292 287 285 289 290 291 284 283 283 289 291 288 289 290 293 297 295 293 295 297 298 299 301 301 298 297 297 296 296 295 293 294 294 292 290 291 291 291 290 290 290 288 288 288
288 285 291 290 289 289 287 286 286 290 292 287 288 288 292 294 295 297 298 298 297 299 301 301 296 294 296 296 296 295 294 294 294 294 294 293 293 290 291 289 288 288 287 287
287 290 293 290 288 287 285 284 287 286 288 287 285 286 288 292 294 297 298 299 299 298 299 300 298 293 295 296 296 295 295 294 294 295 293 287 287 285 285 285 287 287 287 286
288 292 290 287 287 288 285 289 289 288 283 282 285 280 284 289 289 291 294 296 297 298 299 299 299 293 293 296 297 296 295 294 294 294 292 291 290 289 289 290 289 287 286 285
286 287 286 286 289 289 287 289 287 285 282 280 281 279 283 287 287 290 294 296 297 299 297 298 298 296 294 295 295 295 294 293 293 293 293 292 291 291 288 286 285 286 285 286
288 289 289 289 289 289 288 286 284 282 281 277 283 282 283 283 287 289 291 293 295 295 297 296 295 293 293 292 293 293 292 291 292 292 292 291 291 288 285 286 285 285 285 284
283 286 289 290 286 286 287 283 277 275 274 279 282 281 287 288 291 290 292 293 295 294 294 293 292 291 292 291 292 291 291 290 291 290 291 291 291 288 288 286 286 285 284 284
280 283 286 288 288 286 284 285 278 270 275 281 280 278 288 290 291 292 291 291 292 292 293 293 293 292 291 291 290 291 290 290 290 290 290 290 291 289 289 287 287 286 286 286
282 282 286 287 288 289 283 281 287 279 269 273 282 284 291 292 288 289 290 289 289 290 290 290 291 290 290 289 289 290 289 290 290 289 290 289 289 289 288 287 287 287 286 285
286 283 286 284 285 286 286 286 280 279 272 270 278 279 282 288 289 290 290 291 292 291 290 289 289 290 289 289 289 288 288 290 289 289 290 290 289 289 288 286 286 286 285 284
289 287 286 287 285 287 282 281 282 283 282 279 277 281 292 292 294 292 291 290 290 291 291 290 291 291 290 288 288 288 288 288 287 288 289 289 289 289 288 286 286 286 284 283
290 288 282 286 291 288 286 286 286 282 280 282 282 283 293 295 296 295 295 292 290 290 289 290 290 290 291 290 288 288 288 287 288 289 288 288 288 287 287 286 285 285 284 283
291 286 282 283 285 286 284 287 288 288 286 281 277 281 294 294 295 296 295 294 290 290 292 292 292 292 291 290 290 289 289 289 289 287 287 286 286 286 286 286 285 284 283 282
296 290 286 281 284 287 283 284 286 287 282 282 283 284 289 292 292 294 295 296 294 294 293 291 291 291 291 290 290 290 290 291 289 287 286 286 286 286 287 287 285 283 283 282
289 284 286 287 286 286 286 286 287 285 285 282 284 285 289 291 292 294 296 296 295 291 289 288 288 289 290 290 291 290 291 288 288 287 286 286 287 287 286 285 284 283 282 282
285 279 282 279 282 283 283 286 286 286 286 286 287 286 293 292 289 289 289 288 287 286 287 288 288 288 287 287 288 289 290 287 287 287 287 287 286 285 285 284 283 282 281 280
279 278 276 273 278 277 274 280 282 283 286 285 281 281 281 280 280 281 284 283 283 284 285 286 287 287 287 286 286 286 286 287 286 286 287 286 285 284 284 283 281 280 279 279
276 274 271 270 272 265 275 282 283 281 278 277 278 279 281 279 281 284 283 282 282 284 285 286 286 286 287 286 286 284 283 283 284 285 286 284 284 283 282 280 279 279 279 278
279 277 272 269 267 274 278 277 275 273 274 277 276 278 279 280 280 280 283 282 282 284 286 285 285 286 287 286 285 282 282 281 280 281 281 280 280 280 278 278 277 278 278 277
276 279 274 272 267 265 271 276 280 278 271 277 279 278 277 278 271 274 280 281 281 283 283 283 284 285 285 286 285 282 282 280 280 280 280 278 279 278 277 278 276 277 277 277
261 259 260 262 262 268 273 275 277 266 267 276 279 279 278 275 277 280 281 280 280 281 282 282 282 281 283 284 284 282 282 281 279 277 276 275 276 278 278 277 276 276 276 275
265 259 257 256 254 258 276 275 270 273 277 279 276 276 275 277 278 277 277 277 278 278 278 278 278 279 280 282 283 283 282 281 275 274 274 274 273 273 276 275 274 274 274 273
266 269 263 266 265 274 275 275 278 279 278 277 276 276 276 274 274 275 275 276 275 275 276 277 276 276 278 280 281 280 282 280 277 275 275 275 276 275 275 273 273 273 273 273
272 275 270 266 273 274 276 278 278 278 278 277 276 274 274 273 274 274 273 273 274 273 273 274 274 273 273 275 274 275 277 281 278 277 276 275 275 274 274 274 274 274 273 272
273 273 269 270 274 275 277 277 277 276 275 275 274 273 272 272 272 272 271 271 271 272 272 272 271 271 270 271 271 273 274 276 277 278 277 274 274 273 273 273 273 274 274 275
276 273 271 269 276 275 276 278 275 274 274 272 271 270 272 272 270 271 269 270 270 269 269 268 268 268 268 268 268 269 269 271 272 273 277 274 274 273 273 272 272 278 277 278

GFSCGP_sfc_thetae_036.txt.gz
Theta_e
290 287 285 289 288 286 283 282 281 287 290 286 287 289 291 294 294 294 295 295 296 297 301 301 299 295 295 296 296 295 293 295 295 295 292 292 292 292 291 292 291 290 290 289
287 284 290 289 288 288 286 283 284 288 291 287 287 287 290 292 294 295 296 296 297 296 297 300 298 294 294 296 296 296 295 294 294 295 295 295 295 293 293 291 290 290 289 288
286 288 291 289 286 286 283 283 285 284 287 286 284 284 286 290 293 295 296 297 298 296 297 299 297 294 292 293 294 295 295 295 294 295 294 287 287 286 286 287 288 289 288 288
286 290 289 286 286 286 284 287 287 285 282 279 285 280 284 288 290 290 293 293 293 293 294 295 296 294 292 294 295 295 295 295 294 294 293 292 292 290 290 290 290 289 288 287
286 286 285 285 287 288 286 287 286 283 281 278 279 278 283 285 286 289 291 292 293 293 293 293 294 294 295 293 293 295 295 294 294 293 294 292 293 293 289 290 289 288 287 287
287 288 288 288 288 289 287 285 284 281 280 276 281 281 282 283 286 287 289 291 292 293 293 293 292 292 292 293 292 292 293 293 292 292 293 292 292 291 287 287 287 287 286 286
282 285 288 288 285 285 285 282 277 275 274 278 280 279 287 287 288 289 292 293 293 292 292 291 291 292 292 290 291 290 290 290 291 291 292 292 292 290 288 288 288 286 286 285
280 283 285 287 288 286 283 284 277 272 274 282 278 278 286 290 291 291 290 290 291 290 290 289 290 290 290 290 289 288 288 289 289 289 290 290 291 291 290 288 288 287 287 287
281 281 285 286 286 288 282 281 286 281 273 272 281 285 291 291 289 288 288 289 289 290 291 291 291 290 290 291 289 288 288 288 287 288 289 289 290 290 289 287 287 287 287 286
287 284 287 285 286 285 285 285 279 278 275 274 279 282 284 288 289 289 289 290 290 291 293 296 291 290 290 290 289 287 287 287 287 287 289 289 289 289 288 286 286 286 286 285
289 288 287 286 283 283 283 283 283 283 281 277 277 281 292 291 289 289 289 290 291 291 292 292 290 290 290 289 288 288 287 286 286 286 288 288 287 287 286 285 286 286 285 284
290 289 284 286 290 289 289 288 288 282 280 281 281 282 294 293 293 292 293 295 293 291 291 291 291 290 291 291 291 288 287 286 286 286 286 287 287 285 286 286 286 287 285 285
292 286 281 282 284 284 284 285 287 287 286 281 278 281 292 293 294 294 293 293 290 288 288 288 289 288 288 288 289 290 289 287 287 285 284 284 284 285 287 287 286 285 285 284
295 287 284 280 283 286 284 286 285 285 280 281 282 284 288 290 291 286 286 288 285 285 286 286 287 287 287 287 287 287 288 289 289 286 284 284 283 284 286 286 284 284 285 284
287 281 285 284 283 283 282 281 281 280 282 278 281 281 286 279 280 281 284 283 282 282 283 284 285 286 285 286 287 286 287 286 287 287 287 287 287 285 285 285 285 284 284 284
283 275 279 275 279 279 277 278 278 279 279 279 281 282 280 280 280 282 281 280 280 281 282 282 284 284 283 284 286 285 285 284 284 284 284 287 286 285 285 286 285 283 283 283
278 273 268 270 276 273 269 273 275 276 278 277 275 275 280 277 278 280 280 280 279 280 281 282 284 283 284 284 285 285 284 283 283 282 283 284 286 286 285 285 284 282 282 282
275 271 270 265 262 258 273 279 277 275 275 275 275 277 278 277 279 280 283 280 279 280 281 282 282 283 284 284 285 285 284 283 282 281 282 282 282 284 283 282 282 281 282 281
278 275 262 261 259 270 275 274 272 270 270 273 273 277 279 279 279 277 281 281 281 280 281 282 282 282 282 282 283 282 282 283 282 282 281 279 279 281 279 280 279 279 280 280
275 277 273 266 264 258 270 274 277 276 265 273 274 273 274 276 268 272 279 281 280 281 280 280 281 280 280 280 281 280 281 282 282 282 280 278 277 278 278 279 277 279 280 279
259 256 258 256 256 263 274 275 275 261 266 273 276 274 276 271 272 277 278 277 278 279 279 280 279 278 278 279 279 278 279 278 279 281 280 279 277 277 279 278 278 278 278 276
264 257 256 255 252 258 275 273 267 273 276 277 276 276 275 276 277 277 276 275 275 275 275 276 275 276 277 278 276 276 275 276 276 277 279 279 278 277 277 277 277 277 277 276
265 267 262 264 264 274 274 274 278 278 276 277 276 278 276 276 275 275 274 274 275 274 275 274 272 273 274 274 275 273 273 274 275 273 274 277 279 277 276 276 275 275 275 274
272 274 270 270 274 275 277 279 278 278 278 278 278 276 275 273 274 273 273 274 273 273 272 273 271 270 270 271 272 271 271 271 270 268 270 273 276 277 276 275 275 274 274 274
273 273 271 270 274 276 277 278 278 278 277 275 275 275 274 272 272 272 272 271 271 271 271 271 270 269 268 269 267 267 268 267 266 267 268 270 271 275 276 275 275 274 275 276
276 273 271 270 276 275 276 279 277 275 274 273 272 271 272 272 271 271 269 270 269 269 269 268 268 267 266 265 265 265 264 263 263 263 265 267 269 271 275 274 273 279 279 279

GFSCGP_sfc_thetae_042.txt.gz
Theta_e
299 295 293 297 297 297 294 293 292 295 298 295 294 295 297 300 300 300 301 302 303 304 306 306 306 308 308 307 307 307 307 308 309 310 311 312 311 312 311 312 310 308 306 303
294 292 298 297 294 293 293 292 291 295 297 292 294 293 296 299 299 301 301 302 303 304 305 305 305 306 307 307 306 306 306 306 307 308 310 310 310 311 310 311 308 307 305 304
294 298 296 294 294 292 293 290 292 291 294 295 292 293 294 300 299 301 302 302 302 302 302 303 304 306 307 306 305 305 305 305 305 306 307 307 308 306 306 307 306 305 304 302
293 296 292 292 291 293 289 295 292 291 289 288 292 286 295 298 298 300 301 302 300 301 301 301 303 303 303 304 306 304 304 304 304 304 304 304 302 302 303 304 304 304 303 302
293 291 290 291 292 293 292 292 291 290 289 288 290 286 294 293 295 297 299 299 300 300 301 301 301 301 301 302 302 303 303 303 303 303 302 303 302 303 304 304 302 302 301 301
293 294 294 294 293 293 293 291 291 289 289 284 291 289 291 294 294 296 298 298 299 300 301 300 299 299 298 300 299 299 299 299 301 301 301 301 301 301 302 302 300 300 300 298
295 296 294 293 291 292 291 289 285 285 285 285 288 287 291 297 297 297 297 298 298 297 296 295 295 294 294 294 295 296 296 295 297 297 299 299 300 300 300 301 299 299 298 297
288 287 291 294 293 294 292 291 285 280 282 286 292 286 293 298 299 297 297 294 295 294 294 293 293 292 292 292 293 293 293 293 294 295 295 297 298 298 298 300 299 299 299 298
289 289 293 291 294 294 290 286 291 285 286 283 288 292 297 296 295 294 294 294 293 293 293 292 293 292 291 291 292 292 291 292 291 292 294 294 295 296 297 298 298 298 299 297
293 287 296 294 292 291 290 292 285 285 278 278 284 286 287 292 291 292 292 291 291 291 291 291 292 292 291 291 292 292 291 291 290 290 291 292 293 294 295 296 297 296 298 297
294 290 290 292 289 291 288 286 287 287 285 280 279 284 294 290 289 289 290 289 288 288 288 288 290 291 291 291 291 291 291 290 290 289 290 291 292 292 292 292 293 295 296 296
295 290 285 288 295 294 293 290 290 283 282 284 283 284 297 293 289 288 287 286 286 286 286 287 288 289 289 289 289 289 290 290 289 289 289 289 290 290 290 291 291 293 293 294
294 288 283 285 289 289 288 290 290 289 285 282 280 283 295 294 292 286 285 284 285 285 285 285 286 287 287 287 288 288 288 288 288 288 288 288 288 288 288 288 290 291 291 291
293 286 285 281 284 288 285 287 288 285 281 282 282 284 288 289 289 284 284 284 284 284 284 283 284 285 286 286 286 285 286 286 286 286 287 286 287 286 285 286 288 289 290 290
288 282 284 285 285 282 282 281 281 280 281 277 279 280 284 287 282 281 282 281 282 283 283 282 283 284 284 285 285 284 285 285 284 284 285 285 286 285 284 285 286 287 288 288
283 280 280 277 281 281 279 280 281 280 280 279 280 279 283 282 282 281 281 280 280 282 282 282 282 283 283 283 283 283 284 284 283 283 284 286 284 282 283 283 284 285 286 288
279 278 276 273 279 276 272 277 279 280 281 280 275 279 281 278 278 279 280 280 280 282 281 282 282 283 283 283 283 282 282 283 282 282 283 283 281 280 281 282 282 283 284 286
278 277 276 272 270 265 277 280 280 278 278 279 279 278 279 279 280 281 283 282 281 282 282 282 283 283 284 284 284 283 282 281 281 281 281 281 279 278 279 279 280 282 283 283
280 277 272 268 269 272 274 278 276 275 275 280 278 278 279 280 280 280 283 284 283 283 283 283 284 283 283 283 283 281 280 280 280 279 279 280 278 276 277 275 277 279 281 282
277 278 273 264 265 264 274 276 278 277 270 278 278 277 277 278 273 277 282 283 283 284 284 283 283 282 281 282 281 279 278 278 278 278 278 278 276 275 275 275 275 277 279 281
270 271 269 270 268 271 277 279 279 268 272 279 279 279 278 276 279 282 283 282 284 284 283 282 281 280 280 280 279 277 277 276 278 277 277 276 275 274 273 273 274 274 276 279
271 268 267 265 264 264 277 276 272 278 280 280 281 281 280 280 281 281 281 282 282 281 281 280 279 278 279 279 277 275 274 276 276 275 274 273 272 272 272 271 271 272 274 275
269 273 271 270 271 278 280 279 282 282 280 281 281 282 281 280 279 280 280 280 279 279 278 278 277 276 276 276 275 273 274 274 273 271 270 269 270 269 269 269 269 270 272 273
275 278 273 273 276 278 280 281 282 282 281 282 282 279 278 277 277 275 275 275 275 275 274 274 272 271 271 272 272 271 271 271 269 267 267 267 267 267 268 268 269 269 271 272
276 276 274 274 277 278 280 281 282 282 281 277 275 274 274 273 272 272 272 271 271 270 270 270 268 268 267 268 267 267 267 266 264 264 264 265 265 265 265 266 267 268 270 272
278 275 273 272 278 278 278 282 280 277 275 272 271 271 272 270 269 269 268 268 267 266 266 265 265 264 264 263 263 262 262 261 260 261 261 262 262 262 263 263 264 268 270 272

GFSCGP_sfc_thetae_045.txt.gz
Theta_e
301 296 294 297 300 299 298 295 294 298 301 299 297 297 299 302 303 303 304 305 306 306 308 308 308 310 310 310 309 309 309 311 312 313 314 316 316 318 318 319 318 317 315 313
296 293 299 301 300 296 295 294 294 298 301 298 297 295 298 301 302 304 303 304 304 304 305 306 307 307 307 307 307 307 307 308 309 311 313 314 314 316 316 317 316 316 314 311
295 300 302 297 296 295 296 295 295 294 296 297 295 294 298 302 305 305 304 303 303 303 303 303 303 303 304 304 305 305 305 306 307 307 309 310 311 312 309 312 312 313 312 311
297 299 295 295 294 295 291 296 294 292 291 288 296 286 295 300 301 300 300 301 301 302 302 300 300 300 300 301 304 303 304 304 305 306 305 305 305 304 306 308 309 310 310 309
294 294 293 292 294 295 293 295 293 292 291 291 292 289 295 300 296 296 299 300 300 299 298 298 298 298 298 299 300 301 300 301 302 304 303 303 303 305 306 306 307 306 307 307
297 297 296 296 297 296 295 293 294 295 292 286 293 292 293 295 296 297 298 297 297 297 297 296 297 297 296 297 298 299 297 297 299 299 299 300 300 301 302 303 303 304 304 304
296 294 298 297 293 295 293 291 287 286 287 286 293 290 293 298 300 297 296 295 296 296 295 295 294 294 294 294 295 295 295 294 295 295 297 297 297 298 299 300 301 302 302 302
290 288 295 296 295 295 293 294 286 280 282 286 292 286 293 301 296 297 297 296 296 295 295 294 294 294 293 294 294 293 293 292 293 293 294 296 296 296 297 298 299 300 300 302
289 289 296 296 298 296 293 288 294 287 288 284 288 292 298 299 295 296 296 295 293 293 293 293 294 293 293 293 293 294 293 293 292 292 293 293 294 294 294 295 296 297 299 298
294 287 296 296 295 296 291 293 286 287 279 279 285 288 289 292 293 294 293 292 291 291 291 291 291 292 291 291 292 293 292 292 292 291 291 292 293 293 293 294 294 294 295 296
294 291 290 294 291 291 288 286 287 288 287 281 280 285 294 292 292 291 290 290 290 289 289 289 290 290 291 290 290 290 290 290 290 290 290 290 291 291 291 292 292 293 293 293
296 290 286 288 295 296 294 291 291 284 283 285 284 284 298 296 290 289 289 288 288 288 288 288 288 288 288 288 288 288 288 288 288 288 288 288 289 289 288 287 288 290 291 292
294 288 282 284 288 291 289 290 290 290 288 283 281 283 297 292 289 289 287 287 287 287 287 286 286 286 286 287 287 287 286 286 287 286 286 287 287 287 286 285 286 287 288 289
294 287 285 280 283 288 283 286 287 286 282 282 283 284 289 291 290 288 286 285 285 285 286 285 284 285 285 286 286 286 285 286 286 285 285 285 286 286 284 284 284 285 285 286
290 282 285 286 286 284 283 283 283 281 283 279 282 282 286 288 287 285 284 284 282 282 284 284 283 284 285 285 285 286 285 285 285 284 284 284 285 285 283 282 284 284 283 284
286 281 282 277 282 282 280 282 282 282 282 282 282 281 288 286 286 284 283 282 282 282 283 284 283 284 284 284 284 285 285 284 284 283 283 284 283 283 281 281 281 282 282 283
282 280 278 274 279 278 273 277 279 280 282 282 278 281 283 281 280 281 281 281 281 283 283 283 284 284 285 285 285 284 285 285 283 282 282 282 281 282 280 280 280 279 279 281
280 279 278 273 274 266 278 282 281 279 280 281 281 281 281 279 281 282 283 282 282 283 283 284 285 285 285 286 285 285 285 284 282 281 281 281 280 280 280 278 278 278 278 278
281 278 274 270 270 274 276 279 277 276 276 282 281 281 280 280 280 280 283 284 283 284 284 285 286 286 286 284 284 283 282 282 281 280 280 280 280 279 278 275 276 277 276 276
278 280 275 272 266 265 275 278 280 279 271 283 282 280 279 279 273 277 283 284 284 285 285 285 286 285 283 283 282 280 279 279 278 279 279 279 279 277 276 275 275 275 275 275
272 273 271 271 269 272 279 280 280 269 272 280 281 281 280 278 280 283 284 283 284 284 284 285 284 282 281 281 280 278 278 276 277 278 277 277 277 276 276 274 274 273 272 272
271 270 269 270 268 266 280 278 273 279 281 281 281 281 280 282 282 283 283 282 283 282 281 281 279 278 279 279 277 275 274 276 275 275 274 273 273 274 274 272 271 270 270 269
270 274 273 273 273 280 281 281 283 283 281 282 282 282 282 281 281 281 280 279 279 278 277 277 275 274 274 274 273 271 272 272 271 269 267 267 268 269 269 268 268 267 268 268
277 280 275 274 277 278 280 282 283 283 282 283 284 281 279 278 278 276 276 275 274 274 273 273 271 269 269 270 269 268 268 267 264 263 263 263 263 264 265 266 266 266 266 266
278 278 276 275 278 279 281 282 282 283 283 280 278 276 275 275 273 273 272 271 271 270 270 269 267 266 266 266 265 264 264 263 261 260 261 261 261 261 262 263 264 264 265 266
279 277 274 273 279 279 279 283 283 279 280 277 274 274 274 272 270 270 268 268 268 267 266 265 265 264 263 263 262 262 261 261 259 259 260 260 260 260 261 261 261 266 267 269

GFSCGP_sfc_thetae_051.txt.gz
Theta_e
295 289 287 289 290 290 289 288 286 290 295 291 291 290 293 296 295 294 293 293 294 294 295 296 296 296 296 297 297 298 299 300 301 305 306 306 307 308 310 311 312 312 312 311
290 287 293 294 295 292 290 287 286 291 294 291 290 289 293 295 293 293 293 292 293 293 293 293 293 293 294 294 294 295 296 297 299 300 302 304 304 304 305 305 308 310 309 308
288 292 296 295 292 291 290 288 288 288 289 290 287 286 290 292 293 293 293 293 292 291 291 291 291 291 292 291 291 293 294 295 296 298 299 299 299 299 300 300 301 303 308 307
292 296 294 292 291 292 287 292 291 289 284 282 287 279 287 289 289 290 290 289 289 290 291 291 290 290 290 290 291 291 292 293 295 295 294 293 293 293 295 296 297 298 300 303
291 290 289 290 291 292 289 291 289 287 284 283 284 280 285 289 287 288 288 289 289 289 289 289 290 291 290 290 289 289 290 291 292 293 293 292 291 292 293 294 294 295 296 297
291 293 292 291 293 292 292 289 288 286 284 278 284 283 283 285 288 288 289 289 290 289 289 289 290 290 290 289 289 289 289 289 290 290 290 290 289 289 289 290 290 292 293 294
289 290 291 293 289 290 289 285 280 278 277 278 286 282 287 289 291 289 288 288 288 289 288 288 287 287 288 288 288 289 288 287 288 288 288 289 288 288 288 288 289 289 290 290
286 284 290 292 291 289 286 286 279 272 275 277 283 279 285 289 290 290 290 289 288 287 288 288 287 287 287 287 287 287 287 287 287 287 287 287 288 287 287 287 287 288 288 288
287 285 291 292 292 292 287 284 288 282 272 274 280 284 289 289 288 288 287 286 285 286 285 286 286 285 286 285 286 286 286 286 286 285 286 286 286 286 285 284 284 284 286 287
290 284 290 289 291 289 288 288 281 280 269 267 277 279 281 285 286 286 285 285 286 286 285 286 285 285 285 284 285 285 286 286 285 284 284 286 286 286 285 284 283 283 283 284
291 287 285 289 287 287 285 283 284 285 283 274 271 277 287 288 287 285 286 286 285 285 285 284 284 284 284 284 283 283 283 283 283 283 283 283 284 285 285 283 282 282 282 283
291 288 281 284 290 290 289 287 287 280 277 279 281 280 291 288 287 286 286 286 285 284 283 282 283 283 283 284 283 283 283 282 283 283 282 282 282 283 282 282 281 281 281 282
291 281 273 276 283 286 285 286 287 286 284 277 274 278 287 286 286 288 287 285 284 283 283 282 281 281 281 282 282 282 283 283 282 282 282 282 280 281 281 281 280 280 280 280
294 282 276 273 279 283 280 283 284 283 277 275 277 278 284 285 283 285 282 281 279 279 280 281 281 280 281 281 281 281 281 281 281 281 280 279 279 280 280 281 281 281 280 279
289 278 282 281 281 281 279 280 280 278 279 273 277 278 281 282 282 280 280 279 279 278 279 279 280 280 280 280 280 281 281 281 281 280 280 279 280 280 279 279 279 279 279 279
284 273 277 270 280 280 278 279 279 279 279 278 279 278 283 279 279 276 277 278 277 278 279 280 280 280 279 279 280 280 280 280 280 279 280 281 280 281 282 281 280 280 279 279
279 274 267 264 275 272 267 272 276 277 278 277 274 278 277 277 278 276 276 277 277 278 278 279 279 279 279 279 280 280 280 279 279 279 280 280 281 280 280 281 280 279 279 279
277 271 265 261 262 257 272 277 277 276 276 276 276 275 276 277 277 277 277 277 278 279 279 279 279 279 280 279 279 278 279 278 278 278 278 279 279 278 279 278 278 278 278 278
279 276 263 262 255 267 273 275 274 273 270 273 271 272 276 277 275 274 278 279 279 279 280 279 279 279 278 277 277 277 277 277 276 276 276 276 275 273 273 272 273 274 274 274
276 277 269 254 258 257 269 274 277 275 266 272 273 270 274 275 268 271 278 279 280 279 279 277 276 277 276 275 275 273 272 272 272 272 272 271 270 268 267 268 268 269 269 270
262 262 269 267 258 264 274 275 277 264 268 275 276 273 274 272 274 277 279 278 278 278 276 276 275 274 274 273 272 270 270 268 270 269 268 268 267 265 264 264 264 264 264 265
266 262 260 259 263 261 276 274 270 274 278 279 277 277 276 278 278 278 277 276 275 274 274 274 271 271 271 271 269 267 266 268 267 266 264 263 262 262 262 261 261 261 261 260
267 269 265 268 266 275 276 275 278 279 277 278 277 278 277 277 277 277 275 273 273 272 272 271 268 268 268 268 267 264 265 265 264 261 260 260 260 260 261 259 259 259 260 259
272 274 270 268 273 275 277 278 279 279 278 279 279 278 278 277 276 274 273 272 271 271 269 268 266 265 264 265 265 263 263 263 260 258 259 259 259 259 260 260 260 259 259 259
272 274 270 269 275 276 277 278 279 279 279 278 276 277 276 274 273 272 270 268 269 268 267 265 264 264 263 263 262 261 262 260 258 259 259 259 259 258 258 259 259 260 261 262
276 274 272 269 277 275 276 278 279 278 278 278 275 272 272 272 271 269 268 267 266 265 264 263 262 262 261 261 260 260 260 259 257 257 258 258 258 258 258 258 259 264 266 268